User: anonymous   Login
Location: Laterina
(43.5167°N, 11.7167°E)
Time: 03:19:29
(UTC+00:00)
Language:

Meteor 1-21 - Orbit

View from above orbital plane
View from above orbital plane
View from above satellite
View from above satellite

Ground track
Ground track

The orbit data is extracted from the following two-line orbital elements,

1  7714U 75023A   20332.73393401 +.00000140 +00000-0 +75009-4 0  9996
2  7714 081.2123 045.1944 0027625 309.0014 050.8696 14.08023140662184
Epoch (UTC): 27 November 2020 17:36:51
Eccentricity: 0.0027625
inclination: 81.2123°
perigee height: 846 km
apogee height: 886 km
right ascension of ascending node: 45.1944°
argument of perigee: 309.0014°
revolutions per day: 14.08023140
mean anomaly at epoch: 50.8696°
orbit number at epoch: 66218

The dashed part of the orbit path shows where the satellite is in the earth's shadow,  

DLR